Regional Weather Roundup
Issued by NWS Little Rock, AR

Home | Current Version | Previous Version | Graphics & Text | Print | Product List | Glossary On
Versions: 1 2 3 4 5 6 7 8 9 10 11 12 13 14 15 16 17 18 19 20 21 22 23 24 25 26 27 28 29 30 31 32 33 34 35 36 37 38 39 40 41 42 43 44 45 46 47 48 49 50
000
ASUS44 KLZK 011405
RWRLZK

WEATHER ROUNDUP FOR ARKANSAS
NATIONAL WEATHER SERVICE LITTLE ROCK AR
900 AM CDT WED APR 01 2015

NOTE: "FAIR" INDICATES FEW OR NO CLOUDS BELOW 12,000 FEET WITH NO
SIGNIFICANT WEATHER AND/OR OBSTRUCTIONS TO VISIBILITY.

ARZ001-003-010-029-011500-
NORTHWEST ARKANSAS

CITY           SKY/WX    TMP DP  RH WIND       PRES   REMARKS
FAYETTEVILLE   LGT RAIN  60  58  92 E5        29.87S
FORT SMITH     CLOUDY    69  61  75 CALM      29.87R
HARRISON       CLOUDY    56  56 100 SE12      29.95F FOG
BENTONVILLE    CLOUDY    61  55  82 E9        29.88S
ROGERS         CLOUDY    62  57  83 E10       29.89F
SILOAM SPGS    CLOUDY    63  54  72 NW7       29.90R
HIGHFILL       CLOUDY    63  58  83 E9        29.87S
SPRINGDALE     PTSUNNY   61  57  88 E9        29.89F
$$

ARZ004-005-016-011500-
NORTH CENTRAL ARKANSAS

CITY           SKY/WX    TMP DP  RH WIND       PRES   REMARKS
BATESVILLE     CLOUDY    61  55  82 E9        30.00F
FLIPPIN        CLOUDY    59  52  77 E9        29.97F
MTN HOME       CLOUDY    59  53  80 E10       29.97F
$$

ARZ040-041-011500-
WEST CENTRAL ARKANSAS

CITY           SKY/WX    TMP DP  RH WIND       PRES   REMARKS
MENA           CLOUDY    68  63  83 CALM      29.93S
MOUNT IDA      CLOUDY    67  62  84 CALM      29.91F
$$

ARZ009-017-025-026-028-011500-
NORTHEAST ARKANSAS

CITY           SKY/WX    TMP DP  RH WIND       PRES   REMARKS
CORNING          N/A     61  46  59 SE9       30.04R
JONESBORO      CLOUDY    62  50  64 E9        30.03R
NEWPORT        CLOUDY    61  58  90 E10       30.02S
BLYTHEVILLE    MOSUNNY   64  44  48 SE9       30.04R
$$

ARZ022-023-033-042-044-011500-
CENTRAL ARKANSAS

CITY           SKY/WX    TMP DP  RH WIND       PRES   REMARKS
LITTLE ROCK    PTSUNNY   66  61  84 SE8       29.97S HAZE
N LITTLE ROCK  PTSUNNY   63  63 100 SE8       29.97S
JACKSONVILLE   PTSUNNY   65  64  99 VRB3      29.97S
SEARCY         CLOUDY    64  62  93 NE6       30.00S
HOT SPRINGS    CLOUDY    67  63  87 S3        29.96S
RUSSELLVILLE   CLOUDY    65  62  90 E12G18    29.92F
CLINTON        CLOUDY    59  59 100 CALM      30.00S FOG
$$

ARZ036-011500-
EAST ARKANSAS

CITY           SKY/WX    TMP DP  RH WIND       PRES   REMARKS
WEST MEMPHIS   CLOUDY    62  60  93 E9        30.01S
$$

ARZ050-053-066-070-073-011500-
SOUTHWEST ARKANSAS

CITY           SKY/WX    TMP DP  RH WIND       PRES   REMARKS
ARKADELPHIA    FAIR      65  65 100 S3        29.98R FOG
CAMDEN         PTSUNNY   66  63  88 MISG      29.98S FOG
TEXARKANA      CLOUDY    65  64  97 S9        29.96R FOG
EL DORADO      PTSUNNY   68  64  87 S8        29.99F
DE QUEEN       PTSUNNY   65  63  93 E3        29.92R FOG
$$

ARZ056-057-069-011500-
SOUTHEAST ARKANSAS

CITY           SKY/WX    TMP DP  RH WIND       PRES   REMARKS
PINE BLUFF     PTSUNNY   64  62  93 S9        29.99S
STUTTGART      MOSUNNY   64  61  88 S10       29.99S
MONTICELLO     CLOUDY    64  62  93 SW6       30.01S FOG

$$





USA.gov is the U.S. government's official web portal to all federal, state and local government web resources and services.